Weather History for KAEX - August, 2014

Change the Weather History Date:

Wednesday, August 27, 2014

  Actual Average Record
Temperature  
Mean Temperature 81 °F 82 °F  
Max Temperature 93 °F 93 °F 104 °F (1943)
Min Temperature 68 °F 71 °F 60 °F (2015)
Cooling Degree Days 16 17  
Month to date cooling degree days 466 479  
Year to date cooling degree days 1845 1925  
Since 1 June cooling degree days 1434 1471  
Growing Degree Days 30 (Base 50)    
Moisture  
Dew Point 70 °F    
Average Humidity 72    
Maximum Humidity 97    
Minimum Humidity 47    
Precipitation  
Precipitation 0.00 in 0.12 in 3.10 in (1900)
Month to date precipitation 2.54 3.05  
Year to date precipitation 28.79 35.78  
Sea Level Pressure  
Sea Level Pressure 29.99 in    
Wind  
Wind Speed 3 mph (ENE)    
Max Wind Speed 12 mph    
Max Gust Speed 15 mph    
Visibility 10 miles    
Events      
T = Trace of Precipitation, MM = Missing Value Source: NWS Daily Summary

Daily Weather History Graph

Daily Weather History Graph

Search for Another Location

Airport or City:

Trip Planner

Search our weather history database for the weather conditions in past years. The results will help you decide how hot, cold, wet, or windy it might be!

Date:

Astronomy

Aug. 27, 2014 Rise Set
Actual Time 6:43 AM CDT 7:39 PM CDT
Civil Twilight 6:18 AM CDT 8:04 PM CDT
Nautical Twilight 5:48 AM CDT 8:34 PM CDT
Astronomical Twilight 5:18 AM CDT 9:04 PM CDT
Moon 8:29 AM CDT (8/27) 8:44 PM CDT (8/27)
Length of Visible Light 13h 46m
Length of Day
12h 56m
Waxing Crescent, 4% of the Moon is Illuminated
Aug 27
Waxing Crescent
Sep 2
First Quarter
Sep 8
Full
Sep 15
Last Quarter
Sep 24
New

Hourly Weather History & Observations

Time (CDT) Temp. Heat Index Dew Point Humidity Pressure Visibility Wind Dir Wind Speed Gust Speed Precip Events Conditions
12:53 AM 72.0 °F - 69.1 °F 91% 30.00 in 10.0 mi Calm Calm - N/A   Clear
1:53 AM 71.1 °F - 69.1 °F 93% 29.99 in 9.0 mi Calm Calm - N/A   Partly Cloudy
2:53 AM 70.0 °F - 68.0 °F 93% 29.99 in 8.0 mi Calm Calm - N/A   Clear
3:53 AM 69.1 °F - 68.0 °F 96% 29.99 in 9.0 mi Calm Calm - N/A   Clear
4:53 AM 70.0 °F - 68.0 °F 93% 29.99 in 10.0 mi Calm Calm - N/A   Scattered Clouds
5:53 AM 69.1 °F - 66.9 °F 93% 29.99 in 10.0 mi Calm Calm - N/A   Scattered Clouds
6:53 AM 69.1 °F - 66.9 °F 93% 30.01 in 10.0 mi Calm Calm - N/A   Clear
7:53 AM 72.0 °F - 68.0 °F 87% 30.02 in 10.0 mi East 4.6 mph - N/A   Mostly Cloudy
8:53 AM 78.1 °F - 68.0 °F 71% 30.03 in 10.0 mi ENE 4.6 mph - N/A   Clear
9:53 AM 84.0 °F 87.0 °F 68.0 °F 58% 30.03 in 10.0 mi ENE 6.9 mph - N/A   Clear
10:53 AM 88.0 °F 91.4 °F 68.0 °F 51% 30.04 in 10.0 mi NE 6.9 mph - N/A   Partly Cloudy
11:53 AM 89.1 °F 92.9 °F 68.0 °F 50% 30.04 in 10.0 mi ENE 6.9 mph - N/A   Scattered Clouds
12:53 PM 91.0 °F 95.2 °F 68.0 °F 47% 30.03 in 10.0 mi ENE 9.2 mph - N/A   Partly Cloudy
2:53 PM 90.0 °F 94.5 °F 69.1 °F 50% 29.99 in 10.0 mi ENE 5.8 mph - N/A   Mostly Cloudy
3:53 PM 91.0 °F 95.6 °F 69.1 °F 48% 29.97 in 10.0 mi Calm Calm - N/A   Clear
4:53 PM 91.9 °F 96.9 °F 69.1 °F 47% 29.96 in 10.0 mi East 5.8 mph - N/A   Clear
5:53 PM 89.1 °F 94.1 °F 70.0 °F 53% 29.96 in 10.0 mi NE 4.6 mph - N/A   Scattered Clouds
6:53 PM 90.0 °F 96.4 °F 71.1 °F 54% 29.96 in 10.0 mi NE 4.6 mph - N/A   Scattered Clouds
7:53 PM 82.9 °F 89.4 °F 73.9 °F 74% 29.96 in 10.0 mi Calm Calm - N/A   Clear
8:53 PM 81.0 °F 86.2 °F 73.9 °F 79% 29.97 in 10.0 mi Calm Calm - N/A   Mostly Cloudy
9:53 PM 79.0 °F - 73.9 °F 84% 29.98 in 10.0 mi Calm Calm - N/A   Partly Cloudy
10:53 PM 79.0 °F - 73.9 °F 84% 29.99 in 10.0 mi SSE 3.5 mph - N/A   Mostly Cloudy
11:53 PM 77.0 °F - 73.9 °F 90% 29.99 in 10.0 mi ESE 3.5 mph - N/A   Clear